{"data":{"norad_id":67459,"epoch":"2026-09-19T22:12:33.542208Z","epoch_age_seconds":121825,"freshness":"FRESH","line1":"1 67459U 26008Q   26262.92538822  .00008609  00000+0  32198-3 0  9992","line2":"2 67459  43.0019 188.6643 0001558 252.0970 107.9712 15.27581221 39272","mean_motion":15.27581221,"eccentricity":0.0001558,"inclination_deg":43.0019,"raan_deg":188.6643,"arg_perigee_deg":252.097,"mean_anomaly_deg":107.9712,"bstar":0.00032198,"rev_number":3927,"period_min":94.266673365972,"perigee_km":481.9764677047,"apogee_km":484.11441215298,"semimajor_km":6861.1824399288,"source":"CELESTRAK","updated_at":"2026-09-20T09:00:43.550402Z"}}